FW4370 Weather Reports


Display with metric or nautical units.
time (UTC)temp
F
wind
direction
speed
MPH
gust
MPH
rain 1hr
in
rain 24hr
in
rain mn
in
humidity
%
barometer
mb
20260906011519 76 253 2.0 6.0 0.00 0.00 0.00 35 1007.5
20260906010019 77 250 2.0 8.0 0.00 0.00 0.00 35 1007.5
20260906004516 77 285 2.0 6.0 0.00 0.00 0.00 35 1007.6
20260906003014 78 240 3.0 11.0 0.00 0.00 0.00 35 1007.4
20260906001512 79 227 4.0 10.0 0.00 0.00 0.00 35 1007.3
20260906000009 79 276 4.0 11.0 0.00 0.00 0.00 36 1007.3
20260905234510 80 285 4.0 11.0 0.00 0.00 0.00 36 1007.4
20260905233005 77 239 3.0 11.0 0.00 0.00 0.00 35 1007.3
20260905231504 78 224 7.0 15.0 0.00 0.00 0.00 34 1007.3
20260905230001 79 250 4.0 11.0 0.00 0.00 0.00 33 1007.3
20260905224612 79 189 4.0 11.0 0.00 0.00 0.00 33 1007.3
20260905223106 80 239 8.0 14.0 0.00 0.00 0.00 32 1007.2
20260905221555 80 222 6.0 13.0 0.00 0.00 0.00 31 1007.3
20260905220151 80 229 3.0 12.0 0.00 0.00 0.00 31 1007.3
20260905214549 81 250 5.0 14.0 0.00 0.00 0.00 30 1007.5
20260905213049 82 233 6.0 15.0 0.00 0.00 0.00 29 1007.6
20260905211543 83 296 4.0 10.0 0.00 0.00 0.00 29 1007.6
20260905210042 83 248 3.0 11.0 0.00 0.00 0.00 29 1007.8
20260905204539 82 233 3.0 17.0 0.00 0.00 0.00 28 1007.9
20260905203039 83 161 6.0 14.0 0.00 0.00 0.00 27 1008.2
20260905201534 82 241 7.0 14.0 0.00 0.00 0.00 27 1008.2
20260905200033 82 271 4.0 12.0 0.00 0.00 0.00 27 1008.4
20260905194530 81 200 8.0 15.0 0.00 0.00 0.00 27 1008.4
20260905193028 82 204 4.0 10.0 0.00 0.00 0.00 27 1008.5
20260905191527 83 214 6.0 14.0 0.00 0.00 0.00 27 1008.7
20260905190025 82 153 5.0 13.0 0.00 0.00 0.00 26 1009.1
20260905184523 85 240 7.0 15.0 0.00 0.00 0.00 26 1009.2
20260905183020 85 178 6.0 15.0 0.00 0.00 0.00 27 1009.3
20260905181516 83 234 2.0 12.0 0.00 0.00 0.00 27 1009.3
20260905180014 82 175 4.0 11.0 0.00 0.00 0.00 27 1009.6
20260905174514 83 233 4.0 10.0 0.00 0.00 0.00 28 1009.4
20260905173022 83 283 3.0 8.0 0.00 0.00 0.00 30 1009.3
20260905171509 82 212 0.0 4.0 0.00 0.00 0.00 33 1009.4
20260905170000 80 127 0.0 2.0 0.00 0.00 0.00 34 1009.5
20260905164556 78 111 2.0 4.0 0.00 0.00 0.00 35 1009.6
20260905163055 77 99 2.0 6.0 0.00 0.00 0.00 36 1009.6
20260905161554 76 135 1.0 4.0 0.00 0.00 0.00 36 1009.5
20260905160051 75 41 1.0 4.0 0.00 0.00 0.00 36 1009.6
20260905154552 75 108 2.0 6.0 0.00 0.00 0.00 36 1009.4
20260905153046 75 124 1.0 4.0 0.00 0.00 0.00 36 1009.4
20260905151544 78 141 0.0 0.0 0.00 0.00 0.00 38 1009.4
20260905150040 77 127 0.0 1.0 0.00 0.00 0.00 40 1009.4
20260905144540 74 56 0.0 1.0 0.00 0.00 0.00 41 1009.4
20260905143032 72 55 0.0 1.0 0.00 0.00 0.00 43 1009.5
20260905141529 72 130 0.0 0.0 0.00 0.00 0.00 44 1009.6
20260905140121 67 130 0.0 0.0 0.00 0.00 0.00 44 1009.4
20260905134519 64 130 0.0 0.0 0.00 0.00 0.00 44 1009.3
20260905133017 61 130 0.0 0.0 0.00 0.00 0.00 44 1009.1
20260905131516 61 146 0.0 5.0 0.00 0.00 0.00 43 1008.8
20260905130006 60 286 0.0 0.0 0.00 0.00 0.00 42 1008.5
20260905124504 60 286 0.0 0.0 0.00 0.00 0.00 40 1008.2
20260905123109 60 286 0.0 0.0 0.00 0.00 0.00 39 1008.3
20260905121555 62 315 0.0 0.0 0.00 0.00 0.00 38 1008.3
20260905120053 63 278 0.0 0.0 0.00 0.00 0.00 37 1008.2
20260905114550 62 278 0.0 0.0 0.00 0.00 0.00 36 1008.3
20260905113046 63 278 0.0 0.0 0.00 0.00 0.00 36 1008.3
20260905111552 65 278 0.0 0.0 0.00 0.00 0.00 35 1008.2
20260905110040 66 278 0.0 0.0 0.00 0.00 0.00 35 1008.2
20260905104538 67 278 0.0 1.0 0.00 0.00 0.00 35 1008.2
20260905103036 66 278 0.0 1.0 0.00 0.00 0.00 35 1008.2
20260905101539 66 277 0.0 2.0 0.00 0.00 0.00 34 1008.2
20260905100031 65 271 0.0 0.0 0.00 0.00 0.00 34 1008.2
20260905094529 64 271 0.0 0.0 0.00 0.00 0.00 33 1008.2
20260905093027 64 271 0.0 0.0 0.00 0.00 0.00 32 1008.2
20260905091523 65 271 0.0 0.0 0.00 0.00 0.00 32 1008.2
20260905090018 67 271 0.0 1.0 0.00 0.00 0.00 32 1008.1
20260905084543 67 271 0.0 1.0 0.00 0.00 0.00 32 1008.2
20260905083017 68 268 0.0 1.0 0.00 0.00 0.00 32 1008.3
20260905081509 68 261 0.0 3.0 0.00 0.00 0.00 32 1008.5
20260905080007 68 266 0.0 3.0 0.00 0.00 0.00 32 1008.5
20260905074505 68 264 0.0 2.0 0.00 0.00 0.00 33 1008.5
20260905073007 68 263 0.0 3.0 0.00 0.00 0.00 33 1008.4
20260905071603 68 264 0.0 3.0 0.00 0.00 0.00 33 1008.4
20260905070104 68 258 0.0 2.0 0.00 0.00 0.00 33 1008.2
20260905064554 68 237 0.0 3.0 0.00 0.00 0.00 34 1008.3
20260905063055 69 231 0.0 3.0 0.00 0.00 0.00 34 1008.2
20260905061602 69 226 0.0 3.0 0.00 0.00 0.00 35 1008.1
20260905060047 70 243 0.0 3.0 0.00 0.00 0.00 35 1007.9
20260905054546 71 242 0.0 4.0 0.00 0.00 0.00 37 1007.9
20260905053043 71 233 3.0 7.0 0.00 0.00 0.00 38 1007.8
20260905051542 71 233 1.0 6.0 0.00 0.00 0.00 38 1007.7
20260905050040 71 232 1.0 6.0 0.00 0.00 0.00 39 1007.6
20260905044538 71 229 1.0 3.0 0.00 0.00 0.00 39 1007.5
20260905043034 72 244 1.0 6.0 0.00 0.00 0.00 38 1007.6
20260905041532 74 210 3.0 10.0 0.00 0.00 0.00 38 1007.4
20260905040032 74 224 2.0 7.0 0.00 0.00 0.00 38 1007.2
20260905034530 73 224 2.0 10.0 0.00 0.00 0.00 38 1007.1
20260905033027 73 245 3.0 8.0 0.00 0.00 0.00 37 1006.9
20260905031532 73 229 1.0 5.0 0.00 0.00 0.00 37 1006.8
20260905030030 73 217 1.0 5.0 0.00 0.00 0.00 36 1006.6
20260905024521 73 240 3.0 7.0 0.00 0.00 0.00 35 1006.4
20260905023029 73 221 1.0 5.0 0.00 0.00 0.00 34 1006.3
20260905021520 74 223 2.0 5.0 0.00 0.00 0.00 33 1006.2
20260905020017 75 225 2.0 6.0 0.00 0.00 0.00 32 1006.1
20260905014514 76 246 1.0 8.0 0.00 0.00 0.00 31 1006.0
20260905013012 77 240 4.0 13.0 0.00 0.00 0.00 31 1006.0